Вернуться в каталог

STARLINK-35568

АктивенСвязьVLEO
NORAD 66473·PAYLOAD·🇺🇸 United States

Запущен Nov 15, 2025 с Cape Canaveral Space Force Station

Loading…

Ближайшие Пролёты (ближайшие 24 часа)

TLE

СвежийSource: CelesTrak SupGP

Эпоха: Sep 15, 2026, 02:51 UTC

1 66473C 25262T   26258.11923611  .00038076  00000+0  13786-2 0  2588
2 66473  43.0031 306.7589 0001704 272.4025  53.3517 15.27571998    10

Отслеживайте STARLINK-35568 в реальном времени с AllMySat

Download on the App Store